Starlink 32906

operational
NORAD ID: 63080 Int'l Des: 2025-037 Owner: SPXS Country: US Constellation: starlink
LEOCIRCULAR

Über Starlink 32906

Beschreibung wird geladen...

Live-Position

3D-Globus wird geladen...

Nächste Überflüge

Höhenverlauf

Altitude vs Time

uPlot chart will show altitude changes over time

Zweizeiliger Elementsatz

1 63080U 25037D 25351.88380029 .00004343 00000-0 37146-3 0 9996
2 63080 69.9996 200.8976 0002352 275.9278 84.1613 14.98342715 46345
Epoch: 17. Dez. 2025 • Age: 14 hours

Aktueller Status

Höhe 573.9 km
Geschwindigkeit 7.58 km/s
Subsatellitenpunkt 11.55°N, 59.01°W
Startdatum 23. Feb. 2025
Alter 0.8 years
Typ internet

Technische Details

Klassifizierung Payload
Masse 730.00 kg
Trockenmasse 700.00 kg
Gesamtmasse 730.00 kg
Länge 0.30 m
Durchmesser 4.10 m
Spannweite 29.00 m
Form Box + pan
Hersteller SPXS
Bus-Typ Starlink V2M
Phasenstatus In Orbit
Besitzer/Staat SPXS/US

Große Konstellationen

Loading constellations...